Location: Peebles
(55.6412°N, 3.1714°W)
Time: 04:23:11
(UTC+00:00)

USA 281 - Visible Passes

Search period start: 25 January 2022 00:00
Search period end: 04 February 2022 00:00
Orbit: 1078 x 1081 km, 106.0° (Epoch: 22 January)

Date Brightness Start Highest point End Pass type
(mag) Time Alt. Az. Time Alt. Az. Time Alt. Az.
25 Jan 5.2 02:27:20 10° NNE 02:29:23 22° NNE 02:29:23 22° NNE visible
25 Jan 4.4 04:12:11 10° NNE 04:16:15 30° N 04:16:15 30° N visible
25 Jan 4.7 05:56:40 10° NNE 06:00:58 19° NNW 06:03:07 16° NW visible
26 Jan 5.6 01:37:48 10° NE 01:38:43 14° NE 01:38:43 14° NE visible
26 Jan 4.6 03:22:23 10° NNE 03:25:36 30° NNE 03:25:36 30° NNE visible
26 Jan 4.5 05:07:12 10° NNE 05:12:14 24° NNW 05:12:28 24° NNW visible
26 Jan 4.9 06:50:59 10° NE 06:54:52 17° N 06:58:44 10° NW visible
27 Jan 5.1 02:32:38 10° NNE 02:34:57 24° NNE 02:34:57 24° NNE visible
27 Jan 4.3 04:17:28 10° NNE 04:21:49 31° NNW 04:21:49 31° NNW visible
27 Jan 4.8 06:01:59 10° NNE 06:06:15 19° NNW 06:08:42 15° NW visible
28 Jan 5.5 01:43:05 10° NE 01:44:18 16° NE 01:44:18 16° NE visible
28 Jan 4.5 03:27:41 10° NNE 03:31:10 32° NNE 03:31:10 32° NNE visible
28 Jan 4.4 05:12:30 10° NNE 05:17:32 24° NNW 05:18:03 24° NNW visible
28 Jan 4.9 06:56:16 10° NE 07:00:09 17° N 07:04:02 10° NW visible
29 Jan 4.9 02:37:56 10° NNE 02:40:32 26° NNE 02:40:32 26° NNE visible
29 Jan 4.2 04:22:47 10° NNE 04:27:24 32° NNW 04:27:24 32° NNW visible
29 Jan 4.8 06:07:17 10° NNE 06:11:33 19° NNW 06:14:17 14° NW visible
30 Jan 5.4 01:48:23 10° NE 01:49:53 17° NE 01:49:53 17° NE visible
30 Jan 4.3 03:32:59 10° NNE 03:36:46 35° N 03:36:46 35° N visible
30 Jan 4.4 05:17:48 10° NNE 05:22:49 24° NNW 05:23:38 23° NW visible
30 Jan 4.9 07:01:34 10° NE 07:05:26 17° N 07:09:19 10° NW visible
31 Jan 4.8 02:43:14 10° NNE 02:46:07 28° NNE 02:46:07 28° NNE visible
31 Jan 4.2 04:28:05 10° NNE 04:33:00 33° NNW 04:33:00 33° NNW visible
31 Jan 4.8 06:12:34 10° NNE 06:16:50 19° NNW 06:19:52 14° NW visible
01 Feb 5.3 01:53:41 10° NE 01:55:29 19° NE 01:55:29 19° NE visible
01 Feb 4.2 03:38:17 10° NNE 03:42:22 38° N 03:42:22 38° N visible
01 Feb 4.4 05:23:06 10° NNE 05:28:06 24° NNW 05:29:14 23° NW visible
01 Feb 4.9 07:06:51 10° NE 07:10:44 17° N 07:14:37 10° NW visible
02 Feb 5.8 01:04:36 10° NE 01:04:51 11° NE 01:04:51 11° NE visible
02 Feb 4.7 02:48:32 10° NNE 02:51:44 31° NNE 02:51:44 31° NNE visible
02 Feb 4.1 04:33:23 10° NNE 04:38:36 34° NNW 04:38:36 34° NNW visible
02 Feb 4.8 06:17:52 10° NNE 06:22:08 19° NNW 06:25:29 13° NW visible
03 Feb 5.2 01:58:59 10° NE 02:01:06 21° NE 02:01:06 21° NE visible
03 Feb 4.1 03:43:35 10° NNE 03:47:58 41° N 03:47:58 41° N visible
03 Feb 4.4 05:28:24 10° NNE 05:33:24 24° NNW 05:34:51 22° NW visible
03 Feb 4.9 07:12:08 10° NE 07:16:01 17° N 07:19:54 10° NW visible
